Regional Weather Roundup
Issued by NWS

Home | Current Version | Previous Version | Text Only | Print | Product List | Glossary Off
Versions: 1 2 3 4 5 6 7 8 9 10 11 12 13 14 15 16 17 18 19 20 21 22 23 24 25 26 27 28 29 30 31 32 33 34 35 36 37 38 39 40 41 42 43 44 45 46 47 48 49 50

451
ASUS43 KDTX 251810
RWRMI
MICHIGAN HOURLY REGIONAL WEATHER ROUNDUP
NATIONAL WEATHER SERVICE DETROIT/PONTIAC MI
200 PM EDT THU AUG 25 2016

NOTE: "FAIR" INDICATES FEW OR NO CLOUDS BELOW 12,000 FEET WITH NO
SIGNIFICANT WEATHER AND/OR OBSTRUCTION TO VISIBILITY.

MIZ047>049-052>055-059>063-066>070-074>076-081>083-251900-
SOUTHEAST LOWER MICHIGAN

CITY           SKY/WX    TMP DP  RH WIND       PRES   REMARKS
ADRIAN         PTSUNNY   84  71  65 W12G21    30.00S
6HR MIN TEMP:  70; 6HR MAX TEMP:  85;

ALMA           MOSUNNY   81  73  76 MISG      29.97F
ANN ARBOR      MOSUNNY   84  70  62 SW15      29.97F
BAD AXE        CLOUDY    76  70  82 W3        29.96S
6HR MIN TEMP:  71; 6HR MAX TEMP:  77;

CARO           CLOUDY    77  72  84 W5        29.95S
DETROIT CITY   MOSUNNY   85  73  67 SW15G22   29.96S HX  91
6HR MIN TEMP:  74; 6HR MAX TEMP:  85;

DETROIT        MOSUNNY   86  73  65 SW17      29.97F HX  93
6HR MIN TEMP:  73; 6HR MAX TEMP:  86;

FLINT          CLOUDY    83  70  64 W8G20     29.96S
6HR MIN TEMP:  73; 6HR MAX TEMP:  84; 6HR PCP:  0.03;

GROSSE ILE     PTSUNNY   84  71  65 SW9       29.96F
6HR MIN TEMP:  73; 6HR MAX TEMP:  86;

HILLSDALE      MOSUNNY   82  68  63 SW10G17   30.01S
6HR MIN TEMP:  51; 6HR MAX TEMP:  84;

HOWELL         PTSUNNY   81  71  70 W13       29.98S

CITY           SKY/WX    TMP DP  RH WIND       PRES   REMARKS
JACKSON        PTSUNNY   82  73  74 W15       30.00S
6HR MIN TEMP:  72; 6HR MAX TEMP:  83;

LAMBERTVILLE   MOSUNNY   86  71  60 S8        29.99F HX  92
6HR MIN TEMP:  73; 6HR MAX TEMP:  86;

LANSING        PTSUNNY   81  69  67 W13       29.98S
6HR MIN TEMP:  72; 6HR MAX TEMP:  83; 6HR PCP:  0.05;

LAPEER         CLOUDY    81  70  68 SW6       29.96F
6HR MIN TEMP:  73; 6HR MAX TEMP:  82; 6HR PCP:  0.01;

MASON          PTSUNNY   80  69  69 W6        29.99S
MONROE         MOSUNNY   85  74  70 SW12G17   29.97F HX  92
6HR MIN TEMP:  72; 6HR MAX TEMP:  85;

MT. CLEMENS    PTSUNNY   87  73  62 SW13      29.93F HX  95
6HR MIN TEMP:  74; 6HR MAX TEMP:  87;

PONTIAC        PTSUNNY   81  70  69 W14       29.97F
6HR MIN TEMP:  72; 6HR MAX TEMP:  82; 6HR PCP: TRACE;

PORT HURON     CLOUDY    81  73  78 SW6       29.95F
TRI CITIES     PTSUNNY   81  71  71 W12       29.96S
6HR MIN TEMP:  72; 6HR MAX TEMP:  81; 6HR PCP:  0.13;

MIDLAND        PTSUNNY   81  69  65 SW8       29.95S
6HR MIN TEMP:  70; 6HR MAX TEMP:  81; 6HR PCP:  0.03;

TROY           MOSUNNY   85  70  60 SW12      29.98S HX  90
SAGINAW HB     CLOUDY    79  72  78 SW7       29.95F
$$
MIZ043>046-050>051-056>058-064>065-071>073-077>080-251900-
SOUTHWEST LOWER MICHIGAN

CITY           SKY/WX    TMP DP  RH WIND       PRES   REMARKS
BATTLE CREEK   PTSUNNY   78  71  79 W12       30.01S
6HR MIN TEMP:  70; 6HR MAX TEMP:  80;

BENTON HARBOR  MOSUNNY   78  69  73 W10       30.04R
6HR MIN TEMP:  72; 6HR MAX TEMP:  78; 6HR PCP: TRACE;

BIG RAPIDS     CLOUDY    81  64  55 W8        30.00R
6HR MIN TEMP:  69; 6HR MAX TEMP:  81;

COLDWATER      CLOUDY    82  69  65 W10G17    30.02R
6HR MIN TEMP:  72; 6HR MAX TEMP:  82;

FREMONT        FAIR      80  66  62 W12       30.00R
HOLLAND        MOSUNNY   77  70  79 W12       30.03R
6HR MIN TEMP:  73; 6HR MAX TEMP:  80;

GRAND RAPIDS   PTSUNNY   78  70  76 NW14      30.00R
6HR MIN TEMP:  73; 6HR MAX TEMP:  81; 6HR PCP: TRACE;

IONIA          CLOUDY    77  68  73 W9        29.98S
6HR MIN TEMP:  70; 6HR MAX TEMP:  81;

KALAMAZOO      PTSUNNY   80  69  69 W14G22    30.02R
6HR MIN TEMP:  73; 6HR MAX TEMP:  81; 6HR PCP: TRACE;

LUDINGTON      PTSUNNY   75  66  71 W8        30.00S
6HR MIN TEMP:  67; 6HR MAX TEMP:  75;

MARSHALL       PTSUNNY   82  72  69 W14       30.00S
MOUNT PLEASANT CLOUDY    81  69  66 W8        29.97S
6HR MIN TEMP:  72; 6HR MAX TEMP:  82; 6HR PCP:  0.06;

MUSKEGON       PTSUNNY   79  65  62 W10       30.01R
6HR MIN TEMP:  72; 6HR MAX TEMP:  80; 6HR PCP: TRACE;

SOUTH HAVEN    PTSUNNY   79  72  79 NW13      30.03R
$$
MIZ016>042-251900-
NORTHERN LOWER MICHIGAN

CITY           SKY/WX    TMP DP  RH WIND       PRES   REMARKS
ALPENA         CLOUDY    82  63  52 W8        29.93R
6HR MIN TEMP:  69; 6HR MAX TEMP:  83;

BEAVER ISLAND  CLOUDY    73  63  69 W8        29.95S
6HR MIN TEMP:  67; 6HR MAX TEMP:  73;

BELLAIRE       CLOUDY    76  64  65 W7        29.96R
6HR MIN TEMP:  69; 6HR MAX TEMP:  76;

CADILLAC       CLOUDY    79  60  52 W7        29.99R
CHARLEVOIX     CLOUDY    73  64  73 W10       29.98S
6HR MIN TEMP:  70; 6HR MAX TEMP:  74;

FRANKFORT      CLOUDY    76  62  60 NW7       29.99R
GAYLORD        CLOUDY    79  59  50 W15       29.97R
6HR MIN TEMP:  70; 6HR MAX TEMP:  79;

GRAYLING       CLOUDY    80  62  53 W12G17    29.98R
6HR MIN TEMP:  68; 6HR MAX TEMP:  81;

HARBOR SPRINGS CLOUDY    73  64  75 SW7       29.94S
HOUGHTON LAKE  CLOUDY    79  62  56 SW8       29.98S
6HR MIN TEMP:  68; 6HR MAX TEMP:  79;

MANISTEE       CLOUDY    75  63  66 W9        29.99R
OSCODA         CLOUDY    82  64  53 W12       29.92S
6HR MIN TEMP:  68; 6HR MAX TEMP:  83;

PELLSTON       CLOUDY    76  61  59 W10       29.94R
6HR MIN TEMP:  69; 6HR MAX TEMP:  77;

ROGERS CITY    CLOUDY    81  60  48 W9        29.93S
TRAVERSE CITY  CLOUDY    79  60  52 NW8       29.95R
6HR MIN TEMP:  70; 6HR MAX TEMP:  80;

$$
MIZ007>008-015-251900-
EASTERN UPPER MICHIGAN

CITY           SKY/WX    TMP DP  RH WIND       PRES   REMARKS
KINROSS        CLOUDY    73  64  73 N8        29.92S
6HR MIN TEMP:  66; 6HR MAX TEMP:  73;

MACKINAC ISLAN CLOUDY    71  69  93 SW7G16    29.93R
6HR MIN TEMP:  69; 6HR MAX TEMP:  71;

NEWBERRY       SUNNY     76  58  54 W12       29.93S
6HR MIN TEMP:  64; 6HR MAX TEMP:  76;

S. S. MARIE    CLOUDY    74  61  63 NW12      29.91S
6HR MIN TEMP:  65; 6HR MAX TEMP:  74;

MUNISING         N/A     74  57  55 N8        29.92S
6HR MIN TEMP:  67; 6HR MAX TEMP:  76;

$$
MIZ004>006-011>014-085-251900-
CENTRAL UPPER MICHIGAN

CITY           SKY/WX    TMP DP  RH WIND       PRES   REMARKS
MANISTIQUE     SUNNY     77  56  48 W7        29.93S
6HR MIN TEMP:  64; 6HR MAX TEMP:  78;

ESCANABA       SUNNY     77  58  51 W9        29.93F
6HR MIN TEMP:  64; 6HR MAX TEMP:  77;

MENOMINEE      CLOUDY   N/A N/A N/A VRB6      29.97F
SAWYER-GWINN   MOSUNNY   75  54  46 W10G17    29.95S
$$
MIZ001>003-009>011-084-251900-
WESTERN UPPER MICHIGAN

CITY           SKY/WX    TMP DP  RH WIND       PRES   REMARKS
IRON MOUNTAIN  SUNNY     78  50  37 W14       29.96S
6HR MIN TEMP:  62; 6HR MAX TEMP:  78;

HOUGHTON       SUNNY     75  52  44 W17       29.91S
6HR MIN TEMP:  63; 6HR MAX TEMP:  75;

COPPER HARBOR    N/A     75  53  46 NW10G21   29.88S
6HR MIN TEMP:  67; 6HR MAX TEMP:  75;

IRONWOOD       MOSUNNY   73  54  51 W20       29.95S
6HR MIN TEMP:  57; 6HR MAX TEMP:  73;

$$

ABBREVIATIONS USED IN REMARKS
   TC - TEMPERATURE IN CELSIUS
  WCI - WIND CHILL INDEX
   HX - HEAT INDEX
  VSB - VISIBILITY





USA.gov is the U.S. government's official web portal to all federal, state and local government web resources and services.